Leakey, Texas, United States (78873)
Lat: 29.73N, Lon: 99.76W
Wx Zone: TXZ185
Local Info
Past Weather Observations for Tuesday, April 21, 2015

NOTE: This archive is for the closest National Weather Service station to Leakey. Information may differ from the station used for current weather conditions.

Click here for Long-term Archive

Time Weather Temperature Dewpoint Humidity Pressure Winds Precip Visibility
23:55
Overcast
64°F / 18°C 61°F / 16°C 88% 29.98 in
(1015 mb)
SSE 10.4 mph
(SSE 17 kph)
- 10SM
23:35
Overcast
Fog And Mist
64°F / 18°C 63°F / 17°C 94% 29.98 in
(1015 mb)
SSE 12.7 mph
(SSE 20 kph)
- 6SM
23:15
Overcast
Fog And Mist
64°F / 18°C 63°F / 17°C 94% 29.98 in
(1015 mb)
SSE 12.7 mph
(SSE 20 kph)
- 5SM
22:55
Overcast
64°F / 18°C 63°F / 17°C 94% 29.98 in
(1015 mb)
SSE 11.5 mph
(SSE 19 kph)
- 7SM
22:35
Overcast
64°F / 18°C 61°F / 16°C 88% 29.98 in
(1015 mb)
SSE 13.8 mph
(SSE 22 kph)
- 9SM
22:15
Overcast
64°F / 18°C 61°F / 16°C 88% 29.98 in
(1015 mb)
SSE 11.5 mph
(SSE 19 kph)
- 10SM
21:55
Overcast
64°F / 18°C 61°F / 16°C 88% 29.98 in
(1015 mb)
SSE 12.7 mph
(SSE 20 kph)
- 10SM
21:35
Overcast
64°F / 18°C 61°F / 16°C 88% 29.98 in
(1015 mb)
SSE 13.8 mph
(SSE 22 kph)
- 10SM
21:15
Overcast
64°F / 18°C 61°F / 16°C 88% 29.98 in
(1015 mb)
SSE 11.5 mph
(SSE 19 kph)
- 10SM
20:55
Overcast
64°F / 18°C 61°F / 16°C 88% 29.98 in
(1015 mb)
SSE 13.8 mph
(SSE 22 kph)
- 10SM
20:35
Overcast
64°F / 18°C 61°F / 16°C 88% 29.98 in
(1015 mb)
SSE 11.5 mph
(SSE 19 kph)
- 10SM
20:15
Overcast
64°F / 18°C 61°F / 16°C 88% 29.98 in
(1015 mb)
SSE 12.7 mph
(SSE 20 kph)
- 10SM
19:55
Overcast
64°F / 18°C 61°F / 16°C 88% 29.98 in
(1015 mb)
SSE 9.2 mph
(SSE 15 kph)
- 9SM
19:35
Overcast
Fog And Mist
63°F / 17°C 61°F / 16°C 94% 29.95 in
(1014 mb)
SSE 11.5 mph
(SSE 19 kph)
- 3SM
19:15
Overcast
Fog And Mist
64°F / 18°C 61°F / 16°C 88% 29.95 in
(1014 mb)
SSE 11.5 mph
(SSE 19 kph)
- 6SM
18:55
Overcast
64°F / 18°C 61°F / 16°C 88% 29.95 in
(1014 mb)
SSE 13.8 mph
(SSE 22 kph)
- 8SM
18:35
Overcast
64°F / 18°C 61°F / 16°C 88% 29.95 in
(1014 mb)
SSE 10.4 mph
(SSE 17 kph)
- 9SM
18:15
Overcast
66°F / 19°C 61°F / 16°C 83% 29.95 in
(1014 mb)
SSE 11.5 mph
(SSE 19 kph)
- 9SM
17:55
Overcast
66°F / 19°C 61°F / 16°C 83% 29.95 in
(1014 mb)
SSE 13.8 mph
(SSE 22 kph)
- 9SM
17:35
Overcast
68°F / 20°C 61°F / 16°C 78% 29.95 in
(1014 mb)
SE 12.7 mph
(SE 20 kph)
- 10SM
17:15
Overcast
68°F / 20°C 61°F / 16°C 78% 29.95 in
(1014 mb)
SSE 16.1 mph
(SSE 26 kph)
- 10SM
16:55
Mostly Cloudy
70°F / 21°C 61°F / 16°C 73% 29.95 in
(1014 mb)
SSE 11.5 mph
(SSE 19 kph)
- 9SM
16:35
Overcast
70°F / 21°C 59°F / 15°C 69% 29.95 in
(1014 mb)
SE 12.7 mph
(SE 20 kph)
- 9SM
16:15
Overcast
70°F / 21°C 59°F / 15°C 69% 29.95 in
(1014 mb)
S 12.7 mph
(S 20 kph)
- 9SM
15:55
Overcast
70°F / 21°C 59°F / 15°C 69% 29.95 in
(1014 mb)
SSE 10.4 mph
(SSE 17 kph)
- 9SM
15:35
Overcast
70°F / 21°C 59°F / 15°C 69% 29.95 in
(1014 mb)
SE 11.5 mph
(SE 19 kph)
- 9SM
15:15
Overcast
70°F / 21°C 59°F / 15°C 69% 29.95 in
(1014 mb)
SSE 12.7 mph
(SSE 20 kph)
- 10SM
14:55
Overcast
70°F / 21°C 57°F / 14°C 64% 29.95 in
(1014 mb)
SSE 12.7 mph
(SSE 20 kph)
- 9SM
14:35
Mostly Cloudy
70°F / 21°C 57°F / 14°C 64% 29.98 in
(1015 mb)
SE 10.4 mph
(SE 17 kph)
- 9SM
14:15
Partly Cloudy
73°F / 23°C 57°F / 14°C 57% 29.98 in
(1015 mb)
SSE 10.4 mph
(SSE 17 kph)
- 9SM
13:55
Partly Cloudy
72°F / 22°C 57°F / 14°C 61% 29.98 in
(1015 mb)
S 12.7 mph
(S 20 kph)
- 10SM
13:35
Mostly Cloudy
72°F / 22°C 57°F / 14°C 61% 29.98 in
(1015 mb)
S 10.4 mph
(S 17 kph)
- 10SM
13:15
Mostly Cloudy
70°F / 21°C 55°F / 13°C 60% 29.98 in
(1015 mb)
S 13.8 mph
(S 22 kph)
- 10SM
12:55
Partly Cloudy
70°F / 21°C 55°F / 13°C 60% 30.01 in
(1016 mb)
SSE 11.5 mph
(SSE 19 kph)
- 10SM
12:35
Mostly Cloudy
70°F / 21°C 55°F / 13°C 60% 30.01 in
(1016 mb)
S 11.5 mph
(S 19 kph)
- 10SM
12:15
Mostly Cloudy
66°F / 19°C 54°F / 12°C 64% 30.01 in
(1016 mb)
SSE 9.2 mph
(SSE 15 kph)
- 9SM
11:55
Mostly Cloudy
66°F / 19°C 54°F / 12°C 64% 30.04 in
(1017 mb)
SE 10.4 mph
(SE 17 kph)
- 10SM
11:35
Overcast
66°F / 19°C 52°F / 11°C 60% 30.04 in
(1017 mb)
SSE 11.5 mph
(SSE 19 kph)
- 10SM
11:15
Overcast
64°F / 18°C 52°F / 11°C 64% 30.04 in
(1017 mb)
SSE 8.1 mph
(SSE 13 kph)
- 10SM
10:55
Overcast
64°F / 18°C 52°F / 11°C 64% 30.04 in
(1017 mb)
SSE 9.2 mph
(SSE 15 kph)
- 10SM
10:35
Overcast
64°F / 18°C 50°F / 10°C 60% 30.04 in
(1017 mb)
SE 10.4 mph
(SE 17 kph)
- 10SM
10:15
Overcast
63°F / 17°C 48°F / 9°C 59% 30.04 in
(1017 mb)
SE 9.2 mph
(SE 15 kph)
- 10SM
09:55
Overcast
63°F / 17°C 48°F / 9°C 59% 30.04 in
(1017 mb)
SSE 9.2 mph
(SSE 15 kph)
- 10SM
09:35
Overcast
63°F / 17°C 46°F / 8°C 56% 30.04 in
(1017 mb)
SSE 10.4 mph
(SSE 17 kph)
- 10SM
09:15
Overcast
61°F / 16°C 46°F / 8°C 59% 30.04 in
(1017 mb)
SSE 12.7 mph
(SSE 20 kph)
- 9SM
08:55
Overcast
59°F / 15°C 46°F / 8°C 63% 30.04 in
(1017 mb)
SSE 10.4 mph
(SSE 17 kph)
- 10SM
08:35
Overcast
59°F / 15°C 45°F / 7°C 59% 30.04 in
(1017 mb)
SSE 11.5 mph
(SSE 19 kph)
- 10SM
08:15
Mostly Cloudy
57°F / 14°C 45°F / 7°C 63% 30.04 in
(1017 mb)
SSE 10.4 mph
(SSE 17 kph)
- 10SM
07:55
Clear
57°F / 14°C 45°F / 7°C 63% 30.01 in
(1016 mb)
SSE 12.7 mph
(SSE 20 kph)
- 10SM
07:35
Clear
57°F / 14°C 46°F / 8°C 67% 30.01 in
(1016 mb)
SSE 12.7 mph
(SSE 20 kph)
- 10SM
07:15
Clear
55°F / 13°C 46°F / 8°C 72% 30.01 in
(1016 mb)
SSE 10.4 mph
(SSE 17 kph)
- 10SM
06:55
Clear
54°F / 12°C 46°F / 8°C 77% 30.01 in
(1016 mb)
SSE 6.9 mph
(SSE 11 kph)
- 10SM
06:35
Clear
52°F / 11°C 45°F / 7°C 77% 30.01 in
(1016 mb)
SSE 6.9 mph
(SSE 11 kph)
- 10SM
06:15
Clear
52°F / 11°C 45°F / 7°C 77% 29.98 in
(1015 mb)
SSE 4.6 mph
(SSE 7 kph)
- 10SM
05:55
Clear
52°F / 11°C 45°F / 7°C 77% 29.98 in
(1015 mb)
SE 4.6 mph
(SE 7 kph)
- 10SM
05:35
Clear
52°F / 11°C 45°F / 7°C 77% 29.98 in
(1015 mb)
SE 8.1 mph
(SE 13 kph)
- 10SM
05:15
Clear
52°F / 11°C 46°F / 8°C 82% 29.98 in
(1015 mb)
SSE 6.9 mph
(SSE 11 kph)
- 10SM
04:55
Clear
52°F / 11°C 45°F / 7°C 77% 29.98 in
(1015 mb)
SSE 5.8 mph
(SSE 9 kph)
- 10SM
04:35
Clear
52°F / 11°C 45°F / 7°C 77% 29.98 in
(1015 mb)
SE 6.9 mph
(SE 11 kph)
- 10SM
04:15
Clear
52°F / 11°C 46°F / 8°C 82% 29.98 in
(1015 mb)
SE 5.8 mph
(SE 9 kph)
- 10SM
03:55
Clear
52°F / 11°C 46°F / 8°C 82% 29.98 in
(1015 mb)
SE 8.1 mph
(SE 13 kph)
- 10SM
03:35
Clear
52°F / 11°C 46°F / 8°C 82% 29.98 in
(1015 mb)
SE 8.1 mph
(SE 13 kph)
- 10SM
03:15
Clear
52°F / 11°C 46°F / 8°C 82% 29.98 in
(1015 mb)
SE 8.1 mph
(SE 13 kph)
- 10SM
02:55
Clear
52°F / 11°C 46°F / 8°C 82% 29.98 in
(1015 mb)
SSE 6.9 mph
(SSE 11 kph)
- 10SM
02:35
Clear
52°F / 11°C 46°F / 8°C 82% 29.98 in
(1015 mb)
SE 6.9 mph
(SE 11 kph)
- 10SM
02:15
Clear
52°F / 11°C 46°F / 8°C 82% 30.01 in
(1016 mb)
SSE 6.9 mph
(SSE 11 kph)
- 10SM
01:55
Clear
52°F / 11°C 46°F / 8°C 82% 30.01 in
(1016 mb)
SSE 6.9 mph
(SSE 11 kph)
- 10SM
01:35
Clear
52°F / 11°C 46°F / 8°C 82% 30.01 in
(1016 mb)
SSE 6.9 mph
(SSE 11 kph)
- 10SM
01:15
Clear
52°F / 11°C 46°F / 8°C 82% 30.01 in
(1016 mb)
SSE 4.6 mph
(SSE 7 kph)
- 10SM
00:55
Clear
52°F / 11°C 46°F / 8°C 82% 30.01 in
(1016 mb)
SSE 4.6 mph
(SSE 7 kph)
- 10SM
00:35
Clear
54°F / 12°C 46°F / 8°C 77% 30.04 in
(1017 mb)
S 5.8 mph
(S 9 kph)
- 10SM
00:15
Clear
54°F / 12°C 46°F / 8°C 77% 30.04 in
(1017 mb)
S 4.6 mph
(S 7 kph)
- 10SM
Time Weather Temperature Dewpoint Humidity Pressure Winds Precip Visibility


Weather for websites

WeatherForYou.com, LLC is not responsible for any damages or problems caused by this service. Current weather conditions are obtained from the closest station including government and personal stations which may have varying degrees of accuracy. Weather forecasts are derived from the NOAA NDFD. Like all things, this site belongs to Jesus Christ... He just trusts us to maintain it. If you have any questions or comments email webmaster@weatherforyou.com

Copyright © 2015, WeatherForYou.com LLC. All rights reserved.